TimeEST,TemperatureF,Dew PointF,Humidity,Sea Level PressureIn,VisibilityMPH,Wind Direction,Wind SpeedMPH,Gust SpeedMPH,PrecipitationIn,Events,Conditions,WindDirDegrees,DateUTC
12:15 AM,24.8,24.8,100,30.39,10.0,Calm,Calm,-,N/A,,Clear,0,2013-01-09 05:15:00
12:35 AM,24.8,23.0,93,30.39,10.0,Calm,Calm,-,N/A,,Clear,0,2013-01-09 05:35:00
12:55 AM,24.8,24.8,100,30.39,7.0,Calm,Calm,-,N/A,,Clear,0,2013-01-09 05:55:00
1:15 AM,24.8,24.8,100,30.38,5.0,Calm,Calm,-,N/A,,Clear,0,2013-01-09 06:15:00
1:35 AM,24.8,24.8,100,30.38,7.0,Calm,Calm,-,N/A,,Clear,0,2013-01-09 06:35:00
1:55 AM,23.0,23.0,100,30.38,7.0,Calm,Calm,-,N/A,,Clear,0,2013-01-09 06:55:00
2:15 AM,23.0,23.0,100,30.39,7.0,Calm,Calm,-,N/A,,Clear,0,2013-01-09 07:15:00
2:35 AM,23.0,23.0,100,30.38,7.0,Calm,Calm,-,N/A,,Clear,0,2013-01-09 07:35:00
2:55 AM,23.0,23.0,100,30.38,7.0,Calm,Calm,-,N/A,,Scattered Clouds,0,2013-01-09 07:55:00
3:15 AM,23.0,23.0,100,30.37,7.0,Calm,Calm,-,N/A,,Scattered Clouds,0,2013-01-09 08:15:00
3:35 AM,23.0,23.0,100,30.37,10.0,Calm,Calm,-,N/A,,Scattered Clouds,0,2013-01-09 08:35:00
3:55 AM,23.0,21.2,93,30.36,10.0,Calm,Calm,-,N/A,,Scattered Clouds,0,2013-01-09 08:55:00
4:15 AM,23.0,21.2,93,30.36,7.0,Calm,Calm,-,N/A,,Scattered Clouds,0,2013-01-09 09:15:00
4:35 AM,21.2,21.2,100,30.36,7.0,Calm,Calm,-,N/A,,Clear,0,2013-01-09 09:35:00
4:55 AM,23.0,23.0,100,30.36,7.0,Calm,Calm,-,N/A,,Clear,0,2013-01-09 09:55:00
5:15 AM,21.2,21.2,100,30.36,7.0,Calm,Calm,-,N/A,,Clear,0,2013-01-09 10:15:00
5:35 AM,23.0,23.0,100,30.36,7.0,Calm,Calm,-,N/A,,Clear,0,2013-01-09 10:35:00
6:45 AM,21.2,19.4,93,30.38,7.0,Calm,Calm,-,N/A,,Partly Cloudy,0,2013-01-09 11:45:00
7:45 AM,23.0,21.2,93,30.40,7.0,Calm,Calm,-,N/A,,Mostly Cloudy,0,2013-01-09 12:45:00
8:45 AM,26.6,24.8,93,30.39,5.0,Calm,Calm,-,N/A,,Mostly Cloudy,0,2013-01-09 13:45:00
9:45 AM,30.2,28.4,93,30.38,4.0,Calm,Calm,-,N/A,,Clear,0,2013-01-09 14:45:00
10:45 AM,33.8,30.2,87,30.31,5.0,Calm,Calm,-,N/A,,Haze,0,2013-01-09 15:45:00
11:45 AM,39.2,32.0,75,30.31,5.0,Calm,Calm,-,N/A,,Haze,0,2013-01-09 16:45:00
12:45 PM,41.0,33.8,76,30.25,8.0,SW,3.5,-,N/A,,Haze,230,2013-01-09 17:45:00
1:45 PM,42.8,33.8,70,30.23,8.0,SW,10.4,-,N/A,,Overcast,220,2013-01-09 18:45:00
2:45 PM,44.6,35.6,71,30.16,8.0,WSW,5.8,-,N/A,,Overcast,250,2013-01-09 19:45:00
3:45 PM,44.6,35.6,71,30.15,7.0,SW,6.9,11.5,N/A,,Mostly Cloudy,230,2013-01-09 20:45:00
4:45 PM,44.6,35.6,71,30.16,7.0,West,4.6,-,N/A,,Haze,270,2013-01-09 21:45:00
5:45 PM,46.4,35.6,66,30.17,10.0,Calm,Calm,-,N/A,,Partly Cloudy,0,2013-01-09 22:45:00
6:45 PM,44.6,35.6,71,30.19,10.0,SW,6.9,-,N/A,,Partly Cloudy,230,2013-01-09 23:45:00
7:45 PM,44.6,35.6,71,30.21,10.0,SW,13.8,-,N/A,,Partly Cloudy,230,2013-01-10 00:45:00
8:45 PM,46.4,35.6,66,30.20,10.0,West,10.4,-,N/A,,Clear,260,2013-01-10 01:45:00
9:45 PM,44.6,33.8,66,30.20,10.0,WSW,13.8,-,N/A,,Clear,240,2013-01-10 02:45:00
9:55 PM,42.8,33.8,70,30.19,10.0,WSW,13.8,18.4,N/A,,Clear,240,2013-01-10 02:55:00
10:15 PM,44.6,33.8,66,30.19,10.0,WSW,12.7,18.4,N/A,,Clear,250,2013-01-10 03:15:00
10:35 PM,44.6,33.8,66,30.21,10.0,WSW,9.2,-,N/A,,Clear,250,2013-01-10 03:35:00
10:55 PM,42.8,33.8,70,30.21,10.0,WSW,10.4,16.1,N/A,,Clear,240,2013-01-10 03:55:00
11:15 PM,42.8,33.8,70,30.22,10.0,WSW,6.9,-,N/A,,Clear,250,2013-01-10 04:15:00
11:35 PM,42.8,32.0,66,30.22,10.0,WSW,6.9,-,N/A,,Clear,250,2013-01-10 04:35:00
11:55 PM,42.8,32.0,66,30.23,10.0,WSW,8.1,-,N/A,,Clear,250,2013-01-10 04:55:00